Location: Waco, TX
(31.5480°N, 97.1670°W)
Time: 15:08:02
(UTC-05:00)

ISS - Pass Details

Date: 21 September 2019
Orbit: 411 x 421 km, 51.6° (Epoch: 17 September)

Event Time Altitude Azimuth Distance (km) Brightness Sun altitude
Rises 19:40:19 0° 234° (SW) 2,332 1.0 -3.7°
Reaches altitude 10° 19:42:26 10° 240° (WSW) 1,472 0.0 -4.2°
Maximum altitude 19:45:39 50° 317° (NW) 528 -2.9 -4.8°
Drops below altitude 10° 19:48:53 10° 35° (NE) 1,477 -1.3 -5.5°
Sets 19:51:01 0° 40° (NE) 2,340 -0.3 -6.0°
